TimeCDT,TemperatureF,Dew PointF,Humidity,Sea Level PressureIn,VisibilityMPH,Wind Direction,Wind SpeedMPH,Gust SpeedMPH,PrecipitationIn,Events,Conditions,WindDirDegrees,DateUTC
12:15 AM,64.4,60.8,88,30.00,7.0,Calm,Calm,-,N/A,,Scattered Clouds,0,2013-08-08 05:15:00
12:35 AM,64.4,60.8,88,30.00,10.0,Calm,Calm,-,N/A,,Scattered Clouds,0,2013-08-08 05:35:00
12:55 AM,64.4,60.8,88,30.00,10.0,NE,3.5,-,N/A,,Scattered Clouds,40,2013-08-08 05:55:00
1:15 AM,64.4,60.8,88,30.00,10.0,Calm,Calm,-,N/A,,Scattered Clouds,0,2013-08-08 06:15:00
1:35 AM,62.6,59.0,88,30.01,10.0,Calm,Calm,-,N/A,,Scattered Clouds,0,2013-08-08 06:35:00
1:55 AM,62.6,59.0,88,30.01,7.0,Calm,Calm,-,N/A,,Clear,0,2013-08-08 06:55:00
2:15 AM,62.6,59.0,88,30.01,7.0,Calm,Calm,-,N/A,,Mostly Cloudy,0,2013-08-08 07:15:00
2:35 AM,62.6,60.8,94,30.02,7.0,NNE,4.6,-,N/A,,Mostly Cloudy,20,2013-08-08 07:35:00
2:55 AM,62.6,60.8,94,30.03,7.0,NNE,4.6,-,N/A,,Mostly Cloudy,30,2013-08-08 07:55:00
3:15 AM,62.6,59.0,88,30.02,10.0,NE,8.1,-,N/A,,Scattered Clouds,40,2013-08-08 08:15:00
3:35 AM,62.6,59.0,88,30.03,10.0,NE,5.8,-,N/A,,Clear,40,2013-08-08 08:35:00
3:55 AM,62.6,59.0,88,30.03,7.0,NNE,5.8,-,N/A,,Scattered Clouds,30,2013-08-08 08:55:00
4:15 AM,62.6,59.0,88,30.02,7.0,NNE,5.8,-,N/A,,Scattered Clouds,30,2013-08-08 09:15:00
4:35 AM,62.6,59.0,88,30.02,10.0,Calm,Calm,-,N/A,,Clear,0,2013-08-08 09:35:00
4:55 AM,60.8,59.0,94,30.02,10.0,Calm,Calm,-,N/A,,Clear,0,2013-08-08 09:55:00
5:15 AM,60.8,59.0,94,30.02,10.0,Calm,Calm,-,N/A,,Clear,0,2013-08-08 10:15:00
5:35 AM,60.8,59.0,94,30.02,10.0,NNE,3.5,-,N/A,,Clear,20,2013-08-08 10:35:00
5:55 AM,60.8,57.2,88,30.02,10.0,NNE,3.5,-,N/A,,Clear,20,2013-08-08 10:55:00
6:15 AM,60.8,57.2,88,30.03,10.0,NNE,3.5,-,N/A,,Clear,30,2013-08-08 11:15:00
6:35 AM,60.8,55.4,82,30.03,10.0,NNE,3.5,-,N/A,,Clear,30,2013-08-08 11:35:00
6:45 AM,62.6,57.2,82,30.03,10.0,Calm,Calm,-,N/A,,Clear,0,2013-08-08 11:45:00
6:55 AM,62.6,55.4,77,30.03,10.0,NE,3.5,-,N/A,,Clear,50,2013-08-08 11:55:00
7:45 AM,66.2,51.8,60,30.04,10.0,East,5.8,-,N/A,,Clear,80,2013-08-08 12:45:00
8:45 AM,69.8,50.0,49,30.06,10.0,East,8.1,-,N/A,,Clear,80,2013-08-08 13:45:00
9:45 AM,69.8,46.4,43,30.06,10.0,East,8.1,-,N/A,,Clear,80,2013-08-08 14:45:00
10:45 AM,69.8,44.6,40,30.06,10.0,ENE,6.9,-,N/A,,Clear,60,2013-08-08 15:45:00
11:45 AM,71.6,42.8,35,30.08,10.0,East,8.1,-,N/A,,Clear,80,2013-08-08 16:45:00
12:45 PM,71.6,41.0,33,30.06,10.0,ENE,8.1,-,N/A,,Clear,70,2013-08-08 17:45:00
1:45 PM,73.4,39.2,29,30.05,10.0,East,6.9,-,N/A,,Clear,80,2013-08-08 18:45:00
2:45 PM,73.4,39.2,29,30.04,10.0,NE,6.9,-,N/A,,Clear,40,2013-08-08 19:45:00
3:45 PM,73.4,39.2,29,30.03,10.0,ENE,4.6,-,N/A,,Clear,70,2013-08-08 20:45:00
4:45 PM,73.4,37.4,27,30.03,10.0,ENE,5.8,-,N/A,,Clear,70,2013-08-08 21:45:00
5:45 PM,71.6,37.4,29,30.02,10.0,ENE,6.9,-,N/A,,Clear,70,2013-08-08 22:45:00
6:45 PM,71.6,41.0,33,30.02,10.0,ENE,5.8,-,N/A,,Clear,70,2013-08-08 23:45:00
7:45 PM,69.8,39.2,33,30.03,10.0,ENE,3.5,-,N/A,,Clear,60,2013-08-09 00:45:00
8:45 PM,68.0,46.4,46,30.03,10.0,Calm,Calm,-,N/A,,Clear,0,2013-08-09 01:45:00
9:15 PM,64.4,44.6,49,30.03,10.0,Calm,Calm,-,N/A,,Clear,0,2013-08-09 02:15:00
9:35 PM,64.4,44.6,49,30.03,10.0,Calm,Calm,-,N/A,,Clear,0,2013-08-09 02:35:00
9:55 PM,64.4,46.4,52,30.03,10.0,Calm,Calm,-,N/A,,Clear,0,2013-08-09 02:55:00
10:15 PM,62.6,48.2,59,30.02,10.0,Calm,Calm,-,N/A,,Clear,0,2013-08-09 03:15:00
10:35 PM,62.6,46.4,55,30.02,10.0,Calm,Calm,-,N/A,,Clear,0,2013-08-09 03:35:00
10:55 PM,62.6,48.2,59,30.02,10.0,Calm,Calm,-,N/A,,Clear,0,2013-08-09 03:55:00
11:15 PM,60.8,48.2,63,30.02,10.0,Calm,Calm,-,N/A,,Clear,0,2013-08-09 04:15:00
11:35 PM,60.8,48.2,63,30.02,10.0,Calm,Calm,-,N/A,,Clear,0,2013-08-09 04:35:00
11:55 PM,60.8,50.0,68,30.02,10.0,Calm,Calm,-,N/A,,Clear,0,2013-08-09 04:55:00